Home   Weather   Öhringen   Past weeks

Flag for Germany Past Weather in Öhringen, Baden-Württemberg, Germany — Yesterday and Last 2 Weeks

Now
52 °F

Scattered clouds.


Feels Like: 52 °F
Forecast: 37 / 63 °F
Wind: 2 mph from West

Location: Niederstetten

Current Time: Apr 29, 2017 at 5:52:59 pm

Latest Report: Apr 29, 2017 at 5:20 pm


Visibility: N/A

Pressure: 30.01 "Hg

Humidity: 44%

Dew Point: 30 °F

Location of ÖhringenLocation

Past Weather in Öhringen — Graph

°F

Öhringen Temperature Yesterday

Maximum temperature yesterday: 50 °F (at 4:20 pm)
Minimum temperature yesterday: 37 °F (at 3:20 am)
Average temperature yesterday: 43 °F

High & Low Weather Summary for the Past Weeks

 TemperatureHumidityPressure
High59 °F (Apr 24, 4:20 pm)100% (Apr 17, 8:20 am)30.54 "Hg (Apr 17, 8:20 am)
Low27 °F (Apr 20, 5:20 am)29% (Apr 24, 5:20 pm)29.68 "Hg (Apr 25, 5:20 am)
Average41 °F71%30.08 "Hg
* Reported Apr 14 4:20 pm — Apr 29 4:20 pm, Öhringen, Weather by CustomWeather, © 2017

Note: Actual official high and low records may vary slightly from our data, if they occured in-between our weather recording intervals... More about our weather records

Advertising

Öhringen Weather History for the Previous 24 Hours

Scroll right to see more
 ConditionsComfort  
Time TempWeatherWind HumidityBarometerVisibility
4:20 pm
Sat, Apr 29
54 °FPartly sunny.3 mph44%30.01 "HgN/A
3:20 pm50 °FPartly sunny.3 mph47%30.04 "HgN/A
2:20 pm50 °FPartly sunny.6 mph58%30.04 "HgN/A
1:20 pm50 °FPartly sunny.6 mph50%30.04 "HgN/A
12:20 pm50 °FScattered clouds.8 mph54%30.04 "HgN/A
11:20 am48 °FScattered clouds.7 mph62%30.04 "HgN/A
10:20 am46 °FBroken clouds.8 mph66%30.04 "HgN/A
9:20 am45 °FPartly sunny.7 mph76%30.04 "HgN/A
8:20 am41 °FPassing clouds.9 mph76%30.04 "HgN/A
7:20 am39 °FPartly sunny.7 mph81%30.04 "HgN/A
6:20 am37 °FPartly sunny.7 mph87%30.04 "HgN/A
5:20 am37 °FPassing clouds.6 mph81%30.01 "HgN/A
4:20 am39 °FPassing clouds.7 mph75%30.01 "HgN/A
3:20 am39 °FPassing clouds.6 mph75%30.01 "HgN/A
2:20 am41 °FPassing clouds.3 mph70%30.01 "HgN/A
1:20 am41 °FPartly cloudy.7 mph66%30.01 "HgN/A
12:20 am41 °FPartly cloudy.7 mph66%30.01 "HgN/A
11:20 pm
Fri, Apr 28
41 °FPassing clouds.5 mph61%30.01 "HgN/A
10:20 pm43 °FPartly cloudy.5 mph57%29.98 "HgN/A
9:20 pm43 °FPassing clouds.5 mph57%29.98 "HgN/A
8:20 pm46 °FScattered showers. Scattered clouds.7 mph50%29.95 "HgN/A
7:20 pm46 °FScattered clouds.8 mph46%29.92 "HgN/A
6:20 pm48 °FBroken clouds.7 mph37%29.92 "HgN/A
5:20 pm48 °FPartly sunny.2 mph54%29.92 "HgN/A
Weather by CustomWeather, © 2017

See weather overviewHow to use our weather pages